Time,TemperatureF,DewpointF,PressureIn,WindDirection,WindDirectionDegrees,WindSpeedMPH,WindSpeedGustMPH,Humidity,HourlyPrecipIn,Conditions,Clouds,dailyrainin,SoftwareType,DateUTC
2013-01-30 00:04:00,41.3,35.6,29.92,NW,323,0.0,0.0,80,0.00,,,0.00,VWS V13.01,2013-01-30 08:04:00,
2013-01-30 00:09:00,41.3,35.6,29.92,NW,324,1.0,2.0,80,0.00,,,0.00,VWS V13.01,2013-01-30 08:09:00,
2013-01-30 00:14:00,41.0,35.3,29.92,NW,324,0.0,2.0,80,0.00,,,0.00,VWS V13.01,2013-01-30 08:14:00,
2013-01-30 00:19:00,40.8,35.4,29.92,NW,324,0.0,2.0,81,0.00,,,0.00,VWS V13.01,2013-01-30 08:19:00,
2013-01-30 00:24:00,40.7,35.6,29.92,NW,324,0.0,2.0,82,0.00,,,0.00,VWS V13.01,2013-01-30 08:24:00,
2013-01-30 00:29:00,40.7,35.3,29.92,NW,324,0.0,2.0,81,0.00,,,0.00,VWS V13.01,2013-01-30 08:29:00,
2013-01-30 00:34:00,40.6,35.2,29.92,NW,323,4.0,4.0,81,0.00,,,0.00,VWS V13.01,2013-01-30 08:34:00,
2013-01-30 00:40:00,40.7,35.3,29.92,NW,323,0.0,4.0,81,0.00,,,0.00,VWS V13.01,2013-01-30 08:40:00,
2013-01-30 00:45:00,40.7,35.6,29.92,NW,324,0.0,4.0,82,0.00,,,0.00,VWS V13.01,2013-01-30 08:45:00,
2013-01-30 00:50:00,40.6,35.5,29.91,NW,324,1.0,4.0,82,0.00,,,0.00,VWS V13.01,2013-01-30 08:50:00,
2013-01-30 00:55:00,40.7,35.6,29.92,NW,323,0.0,4.0,82,0.00,,,0.00,VWS V13.01,2013-01-30 08:55:00,
2013-01-30 01:00:00,40.9,35.8,29.92,NW,325,0.0,4.0,82,0.00,,,0.00,VWS V13.01,2013-01-30 09:00:00,
2013-01-30 01:05:00,41.0,35.6,29.92,NW,325,0.0,1.0,81,0.00,,,0.00,VWS V13.01,2013-01-30 09:05:00,
2013-01-30 01:10:00,40.9,35.5,29.92,NW,325,0.0,1.0,81,0.00,,,0.00,VWS V13.01,2013-01-30 09:10:00,
2013-01-30 01:15:00,40.9,35.5,29.92,NW,325,1.0,2.0,81,0.00,,,0.00,VWS V13.01,2013-01-30 09:15:00,
2013-01-30 01:20:00,41.0,35.6,29.92,NW,325,0.0,3.0,81,0.00,,,0.00,VWS V13.01,2013-01-30 09:20:00,
2013-01-30 01:25:00,41.0,35.6,29.92,NW,325,2.0,5.0,81,0.00,,,0.00,VWS V13.01,2013-01-30 09:25:00,
2013-01-30 01:30:00,40.9,35.5,29.92,NW,325,0.0,5.0,81,0.00,,,0.00,VWS V13.01,2013-01-30 09:30:00,
2013-01-30 01:35:00,40.8,35.4,29.92,NW,325,2.0,6.0,81,0.00,,,0.00,VWS V13.01,2013-01-30 09:35:00,
2013-01-30 01:40:00,40.7,35.3,29.92,NW,325,0.0,6.0,81,0.00,,,0.00,VWS V13.01,2013-01-30 09:40:00,
2013-01-30 01:45:00,40.7,35.3,29.93,NW,325,5.0,6.0,81,0.00,,,0.00,VWS V13.01,2013-01-30 09:45:00,
2013-01-30 01:50:00,40.9,35.5,29.93,NW,325,0.0,6.0,81,0.00,,,0.00,VWS V13.01,2013-01-30 09:50:00,
2013-01-30 01:55:00,41.1,35.4,29.93,NW,325,1.0,6.0,80,0.00,,,0.00,VWS V13.01,2013-01-30 09:55:00,
2013-01-30 02:00:00,41.2,35.5,29.93,NW,325,0.0,6.0,80,0.00,,,0.00,VWS V13.01,2013-01-30 10:00:00,
2013-01-30 02:05:00,41.2,35.5,29.93,NW,325,0.0,0.0,80,0.00,,,0.00,VWS V13.01,2013-01-30 10:05:00,
2013-01-30 02:10:00,41.1,35.4,29.93,NW,325,3.0,4.0,80,0.00,,,0.00,VWS V13.01,2013-01-30 10:10:00,
2013-01-30 02:15:00,41.0,35.3,29.93,NW,325,1.0,4.0,80,0.00,,,0.00,VWS V13.01,2013-01-30 10:15:00,
2013-01-30 02:20:00,40.9,35.2,29.94,NW,325,0.0,4.0,80,0.00,,,0.00,VWS V13.01,2013-01-30 10:20:00,
2013-01-30 02:25:00,40.7,35.3,29.93,NW,325,0.0,4.0,81,0.00,,,0.00,VWS V13.01,2013-01-30 10:25:00,
2013-01-30 02:30:00,40.7,35.3,29.93,NW,325,2.0,4.0,81,0.00,,,0.00,VWS V13.01,2013-01-30 10:30:00,
2013-01-30 02:35:00,40.7,35.3,29.93,NW,325,2.0,4.0,81,0.00,,,0.00,VWS V13.01,2013-01-30 10:35:00,
2013-01-30 02:40:00,40.9,35.5,29.93,NW,325,0.0,5.0,81,0.00,,,0.00,VWS V13.01,2013-01-30 10:40:00,
2013-01-30 02:45:00,41.1,35.4,29.93,NW,325,1.0,5.0,80,0.00,,,0.00,VWS V13.01,2013-01-30 10:45:00,
2013-01-30 02:50:00,41.2,35.5,29.93,NW,325,1.0,5.0,80,0.00,,,0.00,VWS V13.01,2013-01-30 10:50:00,
2013-01-30 02:55:00,41.3,35.6,29.93,NW,325,2.0,5.0,80,0.00,,,0.00,VWS V13.01,2013-01-30 10:55:00,
2013-01-30 03:00:00,41.1,35.4,29.93,NW,325,0.0,5.0,80,0.00,,,0.00,VWS V13.01,2013-01-30 11:00:00,
2013-01-30 03:05:00,41.1,35.4,29.93,NW,325,4.0,6.0,80,0.00,,,0.00,VWS V13.01,2013-01-30 11:05:00,
2013-01-30 03:10:00,41.3,35.6,29.93,NW,325,0.0,6.0,80,0.00,,,0.00,VWS V13.01,2013-01-30 11:10:00,
2013-01-30 03:15:00,41.4,35.7,29.93,NW,325,0.0,6.0,80,0.00,,,0.00,VWS V13.01,2013-01-30 11:15:00,
2013-01-30 03:20:00,41.5,35.8,29.93,NW,325,0.0,6.0,80,0.00,,,0.00,VWS V13.01,2013-01-30 11:20:00,
2013-01-30 03:25:00,41.7,36.0,29.93,NW,325,0.0,6.0,80,0.00,,,0.00,VWS V13.01,2013-01-30 11:25:00,
2013-01-30 03:30:00,41.8,35.8,29.93,NW,325,1.0,6.0,79,0.00,,,0.00,VWS V13.01,2013-01-30 11:30:00,
2013-01-30 03:35:00,41.9,35.5,29.93,NW,325,0.0,6.0,78,0.00,,,0.00,VWS V13.01,2013-01-30 11:35:00,
2013-01-30 03:40:00,42.2,35.8,29.92,NW,325,2.0,6.0,78,0.00,,,0.00,VWS V13.01,2013-01-30 11:40:00,
2013-01-30 03:45:00,42.4,36.0,29.93,NW,325,0.0,6.0,78,0.00,,,0.00,VWS V13.01,2013-01-30 11:45:00,
2013-01-30 03:50:00,42.4,35.7,29.93,NW,325,0.0,6.0,77,0.00,,,0.00,VWS V13.01,2013-01-30 11:50:00,
2013-01-30 03:55:00,42.3,35.9,29.93,NW,325,1.0,6.0,78,0.00,,,0.00,VWS V13.01,2013-01-30 11:55:00,
2013-01-30 04:00:00,42.3,35.6,29.93,NW,325,2.0,6.0,77,0.00,,,0.00,VWS V13.01,2013-01-30 12:00:00,
2013-01-30 04:05:00,42.4,35.4,29.93,NW,325,0.0,2.0,76,0.00,,,0.00,VWS V13.01,2013-01-30 12:05:00,
2013-01-30 04:10:00,42.4,35.7,29.93,NW,325,1.0,4.0,77,0.00,,,0.00,VWS V13.01,2013-01-30 12:10:00,
2013-01-30 04:15:00,42.3,35.6,29.93,NW,325,0.0,4.0,77,0.00,,,0.00,VWS V13.01,2013-01-30 12:15:00,
2013-01-30 04:20:00,42.3,35.9,29.94,East,96,0.0,4.0,78,0.00,,,0.00,VWS V13.01,2013-01-30 12:20:00,
2013-01-30 04:25:00,42.2,35.8,29.94,East,96,0.0,4.0,78,0.00,,,0.00,VWS V13.01,2013-01-30 12:25:00,
2013-01-30 04:30:00,41.9,35.5,29.94,NNW,342,2.0,5.0,78,0.00,,,0.00,VWS V13.01,2013-01-30 12:30:00,
2013-01-30 04:35:00,41.7,35.4,29.94,NE,49,2.0,5.0,78,0.00,,,0.00,VWS V13.01,2013-01-30 12:35:00,
2013-01-30 04:40:00,41.5,35.5,29.94,NE,49,0.0,5.0,79,0.00,,,0.00,VWS V13.01,2013-01-30 12:40:00,
2013-01-30 04:45:00,41.5,35.5,29.94,NE,49,0.0,5.0,79,0.00,,,0.00,VWS V13.01,2013-01-30 12:45:00,
2013-01-30 04:50:00,41.5,35.5,29.95,NE,49,0.0,5.0,79,0.00,,,0.00,VWS V13.01,2013-01-30 12:50:00,
2013-01-30 04:55:00,41.5,35.5,29.95,NE,49,0.0,5.0,79,0.00,,,0.00,VWS V13.01,2013-01-30 12:55:00,
2013-01-30 05:00:00,41.5,35.5,29.95,NE,49,2.0,5.0,79,0.00,,,0.00,VWS V13.01,2013-01-30 13:00:00,
2013-01-30 05:06:00,42.0,35.7,29.95,NE,49,0.0,4.0,78,0.00,,,0.00,VWS V13.01,2013-01-30 13:06:00,
2013-01-30 05:11:00,43.0,35.6,29.95,NE,49,5.0,5.0,75,0.00,,,0.00,VWS V13.01,2013-01-30 13:11:00,
2013-01-30 05:16:00,44.2,36.1,29.95,NNW,348,2.0,6.0,73,0.00,,,0.00,VWS V13.01,2013-01-30 13:16:00,
2013-01-30 05:21:00,44.3,35.9,29.95,NNW,348,2.0,6.0,72,0.00,,,0.00,VWS V13.01,2013-01-30 13:21:00,
2013-01-30 05:26:00,43.9,35.8,29.95,NNW,348,0.0,6.0,73,0.00,,,0.00,VWS V13.01,2013-01-30 13:26:00,
2013-01-30 05:31:00,43.2,35.8,29.95,NNW,348,0.0,6.0,75,0.00,,,0.00,VWS V13.01,2013-01-30 13:31:00,
2013-01-30 05:36:00,42.6,35.6,29.96,ENE,71,0.0,6.0,76,0.00,,,0.00,VWS V13.01,2013-01-30 13:36:00,
2013-01-30 05:41:00,42.1,35.4,29.96,West,270,0.0,6.0,77,0.00,,,0.00,VWS V13.01,2013-01-30 13:41:00,
2013-01-30 05:46:00,42.0,35.7,29.96,NE,36,5.0,6.0,78,0.00,,,0.00,VWS V13.01,2013-01-30 13:46:00,
2013-01-30 05:51:00,42.9,35.9,29.96,NE,36,2.0,6.0,76,0.00,,,0.00,VWS V13.01,2013-01-30 13:51:00,
2013-01-30 05:56:00,42.5,35.5,29.96,NW,311,3.0,6.0,76,0.00,,,0.00,VWS V13.01,2013-01-30 13:56:00,
2013-01-30 06:01:00,41.9,35.5,29.96,NW,310,0.0,6.0,78,0.00,,,0.00,VWS V13.01,2013-01-30 14:01:00,
2013-01-30 06:06:00,41.5,35.2,29.96,NW,311,1.0,4.0,78,0.00,,,0.00,VWS V13.01,2013-01-30 14:06:00,
2013-01-30 06:11:00,40.9,35.2,29.96,NW,310,0.0,4.0,80,0.00,,,0.00,VWS V13.01,2013-01-30 14:11:00,
2013-01-30 06:16:00,40.8,35.1,29.96,NW,311,0.0,4.0,80,0.00,,,0.00,VWS V13.01,2013-01-30 14:16:00,
2013-01-30 06:21:00,40.5,35.1,29.97,NW,311,1.0,4.0,81,0.00,,,0.00,VWS V13.01,2013-01-30 14:21:00,
2013-01-30 06:26:00,40.2,35.2,29.97,NW,311,0.0,4.0,82,0.00,,,0.00,VWS V13.01,2013-01-30 14:26:00,
2013-01-30 06:31:00,40.2,35.5,29.97,NW,311,2.0,4.0,83,0.00,,,0.00,VWS V13.01,2013-01-30 14:31:00,
2013-01-30 06:36:00,40.0,35.0,29.97,NW,310,0.0,4.0,82,0.00,,,0.00,VWS V13.01,2013-01-30 14:36:00,
2013-01-30 06:41:00,40.0,35.6,29.98,NW,310,0.0,4.0,84,0.00,,,0.00,VWS V13.01,2013-01-30 14:41:00,
2013-01-30 06:46:00,40.0,35.3,29.98,NW,310,2.0,5.0,83,0.00,,,0.00,VWS V13.01,2013-01-30 14:46:00,
2013-01-30 06:51:00,40.4,35.7,29.98,NW,311,2.0,5.0,83,0.00,,,0.00,VWS V13.01,2013-01-30 14:51:00,
2013-01-30 06:56:00,40.4,35.3,29.99,NW,310,3.0,5.0,82,0.00,,,0.00,VWS V13.01,2013-01-30 14:56:00,
2013-01-30 07:01:00,40.6,35.5,29.99,NW,311,0.0,5.0,82,0.00,,,0.00,VWS V13.01,2013-01-30 15:01:00,
2013-01-30 07:06:00,40.5,35.5,29.99,NW,311,1.0,4.0,82,0.00,,,0.00,VWS V13.01,2013-01-30 15:06:00,
2013-01-30 07:11:00,40.3,35.2,29.99,NW,311,0.0,4.0,82,0.00,,,0.00,VWS V13.01,2013-01-30 15:11:00,
2013-01-30 07:16:00,40.1,35.1,29.99,NW,311,0.0,4.0,82,0.00,,,0.00,VWS V13.01,2013-01-30 15:16:00,
2013-01-30 07:21:00,40.0,35.3,29.99,NW,310,0.0,4.0,83,0.00,,,0.00,VWS V13.01,2013-01-30 15:21:00,
2013-01-30 07:26:00,40.1,35.4,29.99,NW,311,0.0,4.0,83,0.00,,,0.00,VWS V13.01,2013-01-30 15:26:00,
2013-01-30 07:31:00,40.1,35.4,30.00,NW,310,0.0,4.0,83,0.00,,,0.00,VWS V13.01,2013-01-30 15:31:00,
2013-01-30 07:36:00,40.4,35.7,30.00,NW,310,0.0,4.0,83,0.00,,,0.00,VWS V13.01,2013-01-30 15:36:00,
2013-01-30 07:41:00,40.8,35.7,30.00,NW,311,0.0,4.0,82,0.00,,,0.00,VWS V13.01,2013-01-30 15:41:00,
2013-01-30 07:46:00,41.1,36.0,30.00,NW,310,0.0,4.0,82,0.00,,,0.00,VWS V13.01,2013-01-30 15:46:00,
2013-01-30 07:51:00,41.7,36.3,30.00,NW,311,3.0,4.0,81,0.00,,,0.00,VWS V13.01,2013-01-30 15:51:00,
2013-01-30 07:56:00,42.4,36.7,30.00,NW,310,4.0,7.0,80,0.00,,,0.00,VWS V13.01,2013-01-30 15:56:00,
2013-01-30 08:01:00,43.1,37.0,30.00,WNW,300,4.0,7.0,79,0.00,,,0.00,VWS V13.01,2013-01-30 16:01:00,
2013-01-30 08:06:00,43.7,37.3,30.00,WNW,300,0.0,5.0,78,0.00,,,0.00,VWS V13.01,2013-01-30 16:06:00,
2013-01-30 08:11:00,44.3,37.6,30.00,WNW,300,0.0,5.0,77,0.00,,,0.00,VWS V13.01,2013-01-30 16:11:00,
2013-01-30 08:16:00,44.9,37.8,30.00,WNW,300,0.0,5.0,76,0.00,,,0.00,VWS V13.01,2013-01-30 16:16:00,
2013-01-30 08:21:00,45.5,38.0,30.01,WNW,300,0.0,5.0,75,0.00,,,0.00,VWS V13.01,2013-01-30 16:21:00,
2013-01-30 08:26:00,46.5,38.7,30.01,WNW,300,0.0,5.0,74,0.00,,,0.00,VWS V13.01,2013-01-30 16:26:00,
2013-01-30 08:31:00,47.8,38.9,30.01,WNW,300,0.0,5.0,71,0.00,,,0.00,VWS V13.01,2013-01-30 16:31:00,
2013-01-30 08:36:00,49.1,39.0,30.02,WNW,300,0.0,5.0,68,0.00,,,0.00,VWS V13.01,2013-01-30 16:36:00,
2013-01-30 08:41:00,50.0,38.7,30.02,WNW,300,0.0,5.0,65,0.00,,,0.00,VWS V13.01,2013-01-30 16:41:00,
2013-01-30 08:47:00,50.5,39.2,30.02,WNW,300,0.0,5.0,65,0.00,,,0.00,VWS V13.01,2013-01-30 16:47:00,
2013-01-30 08:52:00,51.4,39.2,30.02,WNW,300,0.0,5.0,63,0.00,,,0.00,VWS V13.01,2013-01-30 16:52:00,
2013-01-30 08:57:00,52.1,39.5,30.02,WNW,300,0.0,5.0,62,0.00,,,0.00,VWS V13.01,2013-01-30 16:57:00,
2013-01-30 09:02:00,52.9,38.5,30.02,NW,321,6.0,7.0,58,0.00,,,0.00,VWS V13.01,2013-01-30 17:02:00,
2013-01-30 09:07:00,54.3,37.5,30.02,NNW,334,7.0,9.0,53,0.00,,,0.00,VWS V13.01,2013-01-30 17:07:00,
2013-01-30 09:12:00,55.1,38.3,30.02,NW,315,6.0,9.0,53,0.00,,,0.00,VWS V13.01,2013-01-30 17:12:00,
2013-01-30 09:17:00,55.8,39.4,30.02,NW,311,2.0,9.0,54,0.00,,,0.00,VWS V13.01,2013-01-30 17:17:00,
2013-01-30 09:22:00,56.5,39.6,30.01,NW,311,1.0,9.0,53,0.00,,,0.00,VWS V13.01,2013-01-30 17:22:00,
2013-01-30 09:27:00,57.0,39.6,30.01,NW,312,2.0,9.0,52,0.00,,,0.00,VWS V13.01,2013-01-30 17:27:00,
2013-01-30 09:32:00,57.5,41.9,30.02,SE,144,6.0,9.0,56,0.00,,,0.00,VWS V13.01,2013-01-30 17:32:00,
2013-01-30 09:37:00,57.0,41.9,30.02,SSE,148,4.0,9.0,57,0.00,,,0.00,VWS V13.01,2013-01-30 17:37:00,
2013-01-30 09:42:00,57.0,42.8,30.02,SSE,148,5.0,9.0,59,0.00,,,0.00,VWS V13.01,2013-01-30 17:42:00,
2013-01-30 09:47:00,57.2,42.6,30.02,SE,145,0.0,9.0,58,0.00,,,0.00,VWS V13.01,2013-01-30 17:47:00,
2013-01-30 09:52:00,57.7,42.1,30.02,SE,145,1.0,9.0,56,0.00,,,0.00,VWS V13.01,2013-01-30 17:52:00,
2013-01-30 09:57:00,58.5,42.4,30.02,SE,145,0.0,9.0,55,0.00,,,0.00,VWS V13.01,2013-01-30 17:57:00,
2013-01-30 10:02:00,59.0,43.8,30.02,SE,135,4.0,9.0,57,0.00,,,0.00,VWS V13.01,2013-01-30 18:02:00,
2013-01-30 10:07:00,59.0,43.3,30.02,SE,135,4.0,6.0,56,0.00,,,0.00,VWS V13.01,2013-01-30 18:07:00,
2013-01-30 10:12:00,59.0,42.9,30.02,SE,134,2.0,6.0,55,0.00,,,0.00,VWS V13.01,2013-01-30 18:12:00,
2013-01-30 10:17:00,59.0,42.9,30.02,SE,146,1.0,8.0,55,0.00,,,0.00,VWS V13.01,2013-01-30 18:17:00,
2013-01-30 10:22:00,59.0,43.3,30.02,SE,146,3.0,8.0,56,0.00,,,0.00,VWS V13.01,2013-01-30 18:22:00,
2013-01-30 10:27:00,59.3,42.7,30.02,SE,146,0.0,8.0,54,0.00,,,0.00,VWS V13.01,2013-01-30 18:27:00,
2013-01-30 10:32:00,59.8,43.1,30.02,SE,146,0.0,8.0,54,0.00,,,0.00,VWS V13.01,2013-01-30 18:32:00,
2013-01-30 10:37:00,60.7,43.0,30.01,SE,146,0.0,8.0,52,0.00,,,0.00,VWS V13.01,2013-01-30 18:37:00,
2013-01-30 10:42:00,61.5,43.7,30.01,SE,146,0.0,8.0,52,0.00,,,0.00,VWS V13.01,2013-01-30 18:42:00,
2013-01-30 10:47:00,62.3,44.0,30.01,SE,146,3.0,8.0,51,0.00,,,0.00,VWS V13.01,2013-01-30 18:47:00,
2013-01-30 10:52:00,62.1,43.8,30.01,SE,128,2.0,8.0,51,0.00,,,0.00,VWS V13.01,2013-01-30 18:52:00,
2013-01-30 10:57:00,61.7,41.8,30.01,SSE,150,5.0,8.0,48,0.00,,,0.00,VWS V13.01,2013-01-30 18:57:00,
2013-01-30 11:02:00,61.4,42.6,30.01,SE,134,6.0,9.0,50,0.00,,,0.00,VWS V13.01,2013-01-30 19:02:00,
2013-01-30 11:07:00,61.7,42.4,30.01,SSE,150,5.0,9.0,49,0.00,,,0.00,VWS V13.01,2013-01-30 19:07:00,
2013-01-30 11:12:00,62.4,44.0,30.01,SE,143,3.0,9.0,51,0.00,,,0.00,VWS V13.01,2013-01-30 19:12:00,
2013-01-30 11:17:00,62.7,42.8,30.00,SSE,155,5.0,9.0,48,0.00,,,0.00,VWS V13.01,2013-01-30 19:17:00,
2013-01-30 11:22:00,63.1,43.1,30.00,SE,136,1.0,9.0,48,0.00,,,0.00,VWS V13.01,2013-01-30 19:22:00,
2013-01-30 11:27:00,63.6,42.5,30.00,SE,136,1.0,9.0,46,0.00,,,0.00,VWS V13.01,2013-01-30 19:27:00,
2013-01-30 11:32:00,64.0,42.8,29.99,West,272,6.0,9.0,46,0.00,,,0.00,VWS V13.01,2013-01-30 19:32:00,
2013-01-30 11:37:00,64.3,41.9,29.99,West,261,6.0,9.0,44,0.00,,,0.00,VWS V13.01,2013-01-30 19:37:00,
2013-01-30 11:42:00,64.6,42.2,29.98,WNW,286,4.0,9.0,44,0.00,,,0.00,VWS V13.01,2013-01-30 19:42:00,
2013-01-30 11:47:00,65.5,41.8,29.98,SE,141,5.0,10.0,42,0.00,,,0.00,VWS V13.01,2013-01-30 19:47:00,
2013-01-30 11:52:00,66.1,42.4,29.98,SSE,149,0.0,11.0,42,0.00,,,0.00,VWS V13.01,2013-01-30 19:52:00,
2013-01-30 11:57:00,66.5,41.5,29.98,SE,146,5.0,11.0,40,0.00,,,0.00,VWS V13.01,2013-01-30 19:57:00,
2013-01-30 12:02:00,66.2,41.8,29.98,SE,142,1.0,11.0,41,0.00,,,0.00,VWS V13.01,2013-01-30 20:02:00,
2013-01-30 12:07:00,66.5,42.7,29.98,SE,141,3.0,7.0,42,0.00,,,0.00,VWS V13.01,2013-01-30 20:07:00,
2013-01-30 12:12:00,66.8,41.1,29.97,SE,144,4.0,10.0,39,0.00,,,0.00,VWS V13.01,2013-01-30 20:12:00,
2013-01-30 12:17:00,67.0,42.5,29.97,SE,144,4.0,10.0,41,0.00,,,0.00,VWS V13.01,2013-01-30 20:17:00,
2013-01-30 12:22:00,67.3,41.5,29.97,SSE,156,4.0,10.0,39,0.00,,,0.00,VWS V13.01,2013-01-30 20:22:00,
2013-01-30 12:27:00,67.2,41.4,29.96,ESE,123,4.0,10.0,39,0.00,,,0.00,VWS V13.01,2013-01-30 20:27:00,
2013-01-30 12:32:00,67.3,42.2,29.96,ESE,118,1.0,11.0,40,0.00,,,0.00,VWS V13.01,2013-01-30 20:32:00,
2013-01-30 12:37:00,67.2,41.4,29.96,SE,138,5.0,11.0,39,0.00,,,0.00,VWS V13.01,2013-01-30 20:37:00,
2013-01-30 12:43:00,67.4,41.6,29.95,ESE,106,0.0,11.0,39,0.00,,,0.00,VWS V13.01,2013-01-30 20:43:00,
2013-01-30 12:48:00,67.5,41.0,29.95,SSE,157,2.0,11.0,38,0.00,,,0.00,VWS V13.01,2013-01-30 20:48:00,
2013-01-30 12:53:00,67.7,41.9,29.95,SE,139,7.0,11.0,39,0.00,,,0.00,VWS V13.01,2013-01-30 20:53:00,
2013-01-30 12:58:00,67.9,41.4,29.94,ESE,117,4.0,11.0,38,0.00,,,0.00,VWS V13.01,2013-01-30 20:58:00,
2013-01-30 13:03:00,68.1,41.6,29.94,SSE,150,0.0,11.0,38,0.00,,,0.00,VWS V13.01,2013-01-30 21:03:00,
2013-01-30 13:08:00,68.4,43.2,29.94,SSE,148,4.0,8.0,40,0.00,,,0.00,VWS V13.01,2013-01-30 21:08:00,
2013-01-30 13:13:00,68.8,43.5,29.94,SSE,147,5.0,8.0,40,0.00,,,0.00,VWS V13.01,2013-01-30 21:13:00,
2013-01-30 13:18:00,68.9,43.0,29.94,SSE,160,2.0,8.0,39,0.00,,,0.00,VWS V13.01,2013-01-30 21:18:00,
2013-01-30 13:23:00,69.1,43.1,29.93,SE,130,6.0,8.0,39,0.00,,,0.00,VWS V13.01,2013-01-30 21:23:00,
2013-01-30 13:28:00,69.2,43.9,29.93,SE,142,9.0,10.0,40,0.00,,,0.00,VWS V13.01,2013-01-30 21:28:00,
2013-01-30 13:33:00,69.0,43.0,29.93,SSE,161,9.0,10.0,39,0.00,,,0.00,VWS V13.01,2013-01-30 21:33:00,
2013-01-30 13:38:00,69.0,44.3,29.93,SE,128,4.0,10.0,41,0.00,,,0.00,VWS V13.01,2013-01-30 21:38:00,
2013-01-30 13:43:00,69.0,43.7,29.92,SSE,159,6.0,11.0,40,0.00,,,0.00,VWS V13.01,2013-01-30 21:43:00,
2013-01-30 13:48:00,68.6,43.3,29.92,SSE,155,4.0,11.0,40,0.00,,,0.00,VWS V13.01,2013-01-30 21:48:00,
2013-01-30 13:53:00,68.4,43.8,29.92,SSE,151,6.0,11.0,41,0.00,,,0.00,VWS V13.01,2013-01-30 21:53:00,
2013-01-30 13:58:00,68.2,43.0,29.92,ESE,117,7.0,11.0,40,0.00,,,0.00,VWS V13.01,2013-01-30 21:58:00,
2013-01-30 14:03:00,67.9,42.1,29.92,SSE,157,7.0,8.0,39,0.00,,,0.00,VWS V13.01,2013-01-30 22:03:00,
2013-01-30 14:08:00,67.6,43.7,29.92,SSE,155,9.0,10.0,42,0.00,,,0.00,VWS V13.01,2013-01-30 22:08:00,
2013-01-30 14:13:00,67.2,45.2,29.92,ESE,113,6.0,13.0,45,0.00,,,0.00,VWS V13.01,2013-01-30 22:13:00,
2013-01-30 14:18:00,66.7,45.3,29.93,SSE,149,4.0,13.0,46,0.00,,,0.00,VWS V13.01,2013-01-30 22:18:00,
2013-01-30 14:23:00,66.3,44.3,29.92,SSE,156,7.0,13.0,45,0.00,,,0.00,VWS V13.01,2013-01-30 22:23:00,
2013-01-30 14:28:00,66.1,43.6,29.92,South,176,2.0,13.0,44,0.00,,,0.00,VWS V13.01,2013-01-30 22:28:00,
2013-01-30 14:33:00,66.1,43.0,29.92,SSE,161,1.0,13.0,43,0.00,,,0.00,VWS V13.01,2013-01-30 22:33:00,
2013-01-30 14:38:00,66.1,42.4,29.93,SE,142,0.0,13.0,42,0.00,,,0.00,VWS V13.01,2013-01-30 22:38:00,
2013-01-30 14:43:00,66.1,43.0,29.92,SE,136,2.0,13.0,43,0.00,,,0.00,VWS V13.01,2013-01-30 22:43:00,
2013-01-30 14:48:00,66.2,43.1,29.93,SE,136,5.0,13.0,43,0.00,,,0.00,VWS V13.01,2013-01-30 22:48:00,
2013-01-30 14:53:00,65.7,42.6,29.92,SSE,147,5.0,13.0,43,0.00,,,0.00,VWS V13.01,2013-01-30 22:53:00,
2013-01-30 14:58:00,65.4,42.3,29.92,SSE,156,1.0,13.0,43,0.00,,,0.00,VWS V13.01,2013-01-30 22:58:00,
2013-01-30 15:03:00,65.5,41.8,29.92,SE,132,7.0,7.0,42,0.00,,,0.00,VWS V13.01,2013-01-30 23:03:00,
2013-01-30 15:08:00,65.3,42.2,29.92,SE,134,5.0,7.0,43,0.00,,,0.00,VWS V13.01,2013-01-30 23:08:00,
2013-01-30 15:13:00,65.4,42.3,29.92,SE,134,4.0,7.0,43,0.00,,,0.00,VWS V13.01,2013-01-30 23:13:00,
2013-01-30 15:18:00,65.3,41.6,29.92,SE,135,1.0,7.0,42,0.00,,,0.00,VWS V13.01,2013-01-30 23:18:00,
2013-01-30 15:23:00,65.3,42.8,29.92,SSE,151,6.0,7.0,44,0.00,,,0.00,VWS V13.01,2013-01-30 23:23:00,
2013-01-30 15:28:00,65.3,42.2,29.92,SSE,154,4.0,8.0,43,0.00,,,0.00,VWS V13.01,2013-01-30 23:28:00,
2013-01-30 15:33:00,65.2,42.2,29.92,SE,144,5.0,8.0,43,0.00,,,0.00,VWS V13.01,2013-01-30 23:33:00,
2013-01-30 15:38:00,65.1,42.1,29.92,SSE,153,5.0,8.0,43,0.00,,,0.00,VWS V13.01,2013-01-30 23:38:00,
2013-01-30 15:43:00,65.0,42.0,29.92,SE,144,2.0,8.0,43,0.00,,,0.00,VWS V13.01,2013-01-30 23:43:00,
2013-01-30 15:48:00,65.0,42.0,29.92,SE,140,1.0,8.0,43,0.00,,,0.00,VWS V13.01,2013-01-30 23:48:00,
2013-01-30 15:53:00,64.9,42.5,29.91,SSE,155,6.0,8.0,44,0.00,,,0.00,VWS V13.01,2013-01-30 23:53:00,
2013-01-30 15:58:00,64.7,42.3,29.91,SSE,153,6.0,8.0,44,0.00,,,0.00,VWS V13.01,2013-01-30 23:58:00,
2013-01-30 16:03:00,64.4,42.6,29.92,SSE,152,0.0,0.0,45,0.00,,,0.00,VWS V13.01,2013-01-31 00:03:00,
2013-01-30 16:08:00,64.1,43.5,29.92,SE,145,3.0,8.0,47,0.00,,,0.00,VWS V13.01,2013-01-31 00:08:00,
2013-01-30 16:13:00,63.8,43.2,29.92,SE,145,1.0,8.0,47,0.00,,,0.00,VWS V13.01,2013-01-31 00:13:00,
2013-01-30 16:18:00,63.3,42.8,29.92,SE,144,4.0,8.0,47,0.00,,,0.00,VWS V13.01,2013-01-31 00:18:00,
2013-01-30 16:23:00,63.1,43.1,29.92,SE,132,4.0,8.0,48,0.00,,,0.00,VWS V13.01,2013-01-31 00:23:00,
2013-01-30 16:28:00,62.8,43.9,29.92,SE,127,4.0,8.0,50,0.00,,,0.00,VWS V13.01,2013-01-31 00:28:00,
2013-01-30 16:33:00,62.5,43.6,29.92,SE,126,2.0,8.0,50,0.00,,,0.00,VWS V13.01,2013-01-31 00:33:00,
2013-01-30 16:38:00,62.2,42.8,29.92,SE,126,1.0,8.0,49,0.00,,,0.00,VWS V13.01,2013-01-31 00:38:00,
2013-01-30 16:43:00,62.0,43.2,29.92,SE,127,2.0,8.0,50,0.00,,,0.00,VWS V13.01,2013-01-31 00:43:00,
2013-01-30 16:48:00,61.6,42.8,29.92,SE,127,0.0,8.0,50,0.00,,,0.00,VWS V13.01,2013-01-31 00:48:00,
2013-01-30 16:53:00,61.2,43.0,29.92,SE,126,0.0,8.0,51,0.00,,,0.00,VWS V13.01,2013-01-31 00:53:00,
2013-01-30 16:58:00,60.7,43.0,29.92,SE,127,0.0,8.0,52,0.00,,,0.00,VWS V13.01,2013-01-31 00:58:00,
2013-01-30 17:03:00,60.3,43.1,29.92,SE,127,0.0,0.0,53,0.00,,,0.00,VWS V13.01,2013-01-31 01:03:00,
2013-01-30 17:08:00,59.9,42.7,29.92,SE,127,0.0,2.0,53,0.00,,,0.00,VWS V13.01,2013-01-31 01:08:00,
2013-01-30 17:13:00,59.6,43.0,29.92,SE,127,0.0,2.0,54,0.00,,,0.00,VWS V13.01,2013-01-31 01:13:00,
2013-01-30 17:18:00,59.1,43.4,29.93,SE,127,0.0,2.0,56,0.00,,,0.00,VWS V13.01,2013-01-31 01:18:00,
2013-01-30 17:23:00,59.0,43.8,29.92,SE,126,0.0,2.0,57,0.00,,,0.00,VWS V13.01,2013-01-31 01:23:00,
2013-01-30 17:28:00,58.4,43.7,29.92,SE,127,0.0,2.0,58,0.00,,,0.00,VWS V13.01,2013-01-31 01:28:00,
2013-01-30 17:34:00,57.8,44.0,29.92,SE,127,0.0,2.0,60,0.00,,,0.00,VWS V13.01,2013-01-31 01:34:00,
2013-01-30 17:39:00,57.2,43.5,29.92,SE,126,0.0,2.0,60,0.00,,,0.00,VWS V13.01,2013-01-31 01:39:00,
2013-01-30 17:44:00,56.7,43.4,29.92,SE,127,0.0,2.0,61,0.00,,,0.00,VWS V13.01,2013-01-31 01:44:00,
2013-01-30 17:49:00,56.1,42.8,29.92,SE,127,0.0,2.0,61,0.00,,,0.00,VWS V13.01,2013-01-31 01:49:00,
2013-01-30 17:54:00,55.6,43.6,29.92,SE,126,0.0,2.0,64,0.00,,,0.00,VWS V13.01,2013-01-31 01:54:00,
2013-01-30 17:59:00,55.0,43.1,29.92,SE,127,0.0,2.0,64,0.00,,,0.00,VWS V13.01,2013-01-31 01:59:00,
2013-01-30 18:04:00,54.5,42.6,29.92,SE,127,0.0,0.0,64,0.00,,,0.00,VWS V13.01,2013-01-31 02:04:00,
2013-01-30 18:09:00,54.2,42.3,29.92,SE,127,2.0,4.0,64,0.00,,,0.00,VWS V13.01,2013-01-31 02:09:00,
2013-01-30 18:14:00,54.0,42.1,29.92,SE,127,1.0,4.0,64,0.00,,,0.00,VWS V13.01,2013-01-31 02:14:00,
2013-01-30 18:19:00,53.8,42.3,29.92,SE,126,1.0,5.0,65,0.00,,,0.00,VWS V13.01,2013-01-31 02:19:00,
2013-01-30 18:24:00,53.3,42.2,29.92,SE,127,1.0,5.0,66,0.00,,,0.00,VWS V13.01,2013-01-31 02:24:00,
2013-01-30 18:29:00,52.9,41.9,29.92,WNW,287,2.0,8.0,66,0.00,,,0.00,VWS V13.01,2013-01-31 02:29:00,
2013-01-30 18:34:00,52.7,41.7,29.92,WNW,288,1.0,8.0,66,0.00,,,0.00,VWS V13.01,2013-01-31 02:34:00,
2013-01-30 18:39:00,52.7,41.3,29.92,WNW,288,2.0,8.0,65,0.00,,,0.00,VWS V13.01,2013-01-31 02:39:00,
2013-01-30 18:44:00,52.6,41.2,29.93,WNW,288,2.0,8.0,65,0.00,,,0.00,VWS V13.01,2013-01-31 02:44:00,
2013-01-30 18:49:00,52.5,41.1,29.93,WNW,288,4.0,8.0,65,0.00,,,0.00,VWS V13.01,2013-01-31 02:49:00,
2013-01-30 18:54:00,52.4,41.0,29.93,West,276,5.0,8.0,65,0.00,,,0.00,VWS V13.01,2013-01-31 02:54:00,
2013-01-30 18:59:00,52.3,41.3,29.93,West,280,1.0,8.0,66,0.00,,,0.00,VWS V13.01,2013-01-31 02:59:00,
2013-01-30 19:04:00,52.2,40.8,29.92,West,280,4.0,4.0,65,0.00,,,0.00,VWS V13.01,2013-01-31 03:04:00,
2013-01-30 19:09:00,52.4,41.0,29.93,West,281,3.0,5.0,65,0.00,,,0.00,VWS V13.01,2013-01-31 03:09:00,
2013-01-30 19:14:00,52.7,41.3,29.92,WNW,285,6.0,6.0,65,0.00,,,0.00,VWS V13.01,2013-01-31 03:14:00,
2013-01-30 19:19:00,52.9,41.1,29.92,WNW,283,6.0,8.0,64,0.00,,,0.00,VWS V13.01,2013-01-31 03:19:00,
2013-01-30 19:24:00,52.6,40.8,29.92,West,276,6.0,8.0,64,0.00,,,0.00,VWS V13.01,2013-01-31 03:24:00,
2013-01-30 19:29:00,52.3,40.9,29.92,West,281,2.0,8.0,65,0.00,,,0.00,VWS V13.01,2013-01-31 03:29:00,
2013-01-30 19:34:00,51.7,40.3,29.92,WNW,282,2.0,8.0,65,0.00,,,0.00,VWS V13.01,2013-01-31 03:34:00,
2013-01-30 19:39:00,51.4,40.0,29.92,WNW,283,4.0,8.0,65,0.00,,,0.00,VWS V13.01,2013-01-31 03:39:00,
2013-01-30 19:44:00,51.2,40.2,29.92,WNW,283,2.0,8.0,66,0.00,,,0.00,VWS V13.01,2013-01-31 03:44:00,
2013-01-30 19:49:00,50.9,40.0,29.92,West,279,2.0,8.0,66,0.00,,,0.00,VWS V13.01,2013-01-31 03:49:00,
2013-01-30 19:54:00,50.8,39.9,29.92,West,279,1.0,8.0,66,0.00,,,0.00,VWS V13.01,2013-01-31 03:54:00,
2013-01-30 19:59:00,50.7,39.8,29.92,West,279,0.0,8.0,66,0.00,,,0.00,VWS V13.01,2013-01-31 03:59:00,
2013-01-30 20:04:00,50.8,39.9,29.92,West,279,2.0,2.0,66,0.00,,,0.00,VWS V13.01,2013-01-31 04:04:00,
2013-01-30 20:09:00,50.9,40.0,29.93,West,279,2.0,4.0,66,0.00,,,0.00,VWS V13.01,2013-01-31 04:09:00,
2013-01-30 20:14:00,50.8,39.9,29.93,NW,323,0.0,5.0,66,0.00,,,0.00,VWS V13.01,2013-01-31 04:14:00,
2013-01-30 20:19:00,50.7,39.8,29.93,NW,324,4.0,5.0,66,0.00,,,0.00,VWS V13.01,2013-01-31 04:19:00,
2013-01-30 20:24:00,50.7,39.8,29.93,NW,324,0.0,5.0,66,0.00,,,0.00,VWS V13.01,2013-01-31 04:24:00,
2013-01-30 20:29:00,50.6,39.7,29.93,NW,324,0.0,5.0,66,0.00,,,0.00,VWS V13.01,2013-01-31 04:29:00,
2013-01-30 20:34:00,50.4,39.1,29.93,NW,324,0.0,5.0,65,0.00,,,0.00,VWS V13.01,2013-01-31 04:34:00,
2013-01-30 20:39:00,50.2,39.3,29.94,NW,324,0.0,5.0,66,0.00,,,0.00,VWS V13.01,2013-01-31 04:39:00,
2013-01-30 20:44:00,50.1,38.8,29.94,NW,324,0.0,5.0,65,0.00,,,0.00,VWS V13.01,2013-01-31 04:44:00,
2013-01-30 20:49:00,50.1,38.8,29.94,NW,323,0.0,5.0,65,0.00,,,0.00,VWS V13.01,2013-01-31 04:49:00,
2013-01-30 20:54:00,50.1,39.2,29.94,NW,323,0.0,5.0,66,0.00,,,0.00,VWS V13.01,2013-01-31 04:54:00,
2013-01-30 20:59:00,49.8,38.9,29.94,NW,324,2.0,5.0,66,0.00,,,0.00,VWS V13.01,2013-01-31 04:59:00,
2013-01-30 21:00:00,49.8,39.3,29.94,NW,324,0.0,5.0,67,0.00,,,0.00,VWS V13.01,2013-01-31 05:00:00,
2013-01-30 21:01:00,49.8,38.9,29.94,NW,324,0.0,5.0,66,0.00,,,0.00,VWS V13.01,2013-01-31 05:01:00,
2013-01-30 21:06:00,49.6,39.1,29.94,NW,324,2.0,4.0,67,0.00,,,0.00,VWS V13.01,2013-01-31 05:06:00,
2013-01-30 21:11:00,49.8,38.5,29.94,NW,323,0.0,4.0,65,0.00,,,0.00,VWS V13.01,2013-01-31 05:11:00,
2013-01-30 21:16:00,50.0,39.1,29.94,NW,323,0.0,5.0,66,0.00,,,0.00,VWS V13.01,2013-01-31 05:16:00,
2013-01-30 21:21:00,49.9,39.0,29.94,NW,324,2.0,5.0,66,0.00,,,0.00,VWS V13.01,2013-01-31 05:21:00,
2013-01-30 21:26:00,49.9,39.0,29.94,NW,323,0.0,5.0,66,0.00,,,0.00,VWS V13.01,2013-01-31 05:26:00,
2013-01-30 21:31:00,49.9,39.0,29.94,NW,324,0.0,5.0,66,0.00,,,0.00,VWS V13.01,2013-01-31 05:31:00,
2013-01-30 21:36:00,49.8,38.9,29.94,NW,324,0.0,5.0,66,0.00,,,0.00,VWS V13.01,2013-01-31 05:36:00,
2013-01-30 21:41:00,49.6,38.7,29.95,NW,324,0.0,5.0,66,0.00,,,0.00,VWS V13.01,2013-01-31 05:41:00,
2013-01-30 21:46:00,49.4,38.9,29.94,NW,324,0.0,5.0,67,0.00,,,0.00,VWS V13.01,2013-01-31 05:46:00,
2013-01-30 21:51:00,49.1,38.6,29.94,NW,323,0.0,5.0,67,0.00,,,0.00,VWS V13.01,2013-01-31 05:51:00,
2013-01-30 21:56:00,49.0,38.9,29.94,NW,324,0.0,5.0,68,0.00,,,0.00,VWS V13.01,2013-01-31 05:56:00,
2013-01-30 22:01:00,49.0,38.9,29.94,NW,323,0.0,5.0,68,0.00,,,0.00,VWS V13.01,2013-01-31 06:01:00,
2013-01-30 22:07:00,48.8,38.7,29.94,NW,323,0.0,1.0,68,0.00,,,0.00,VWS V13.01,2013-01-31 06:07:00,
2013-01-30 22:12:00,48.5,38.8,29.94,NW,324,2.0,2.0,69,0.00,,,0.00,VWS V13.01,2013-01-31 06:12:00,
2013-01-30 22:17:00,48.2,38.5,29.94,NW,324,0.0,2.0,69,0.00,,,0.00,VWS V13.01,2013-01-31 06:17:00,
2013-01-30 22:22:00,48.1,38.8,29.94,NW,324,0.0,2.0,70,0.00,,,0.00,VWS V13.01,2013-01-31 06:22:00,
2013-01-30 22:27:00,48.0,38.7,29.94,NW,324,0.0,2.0,70,0.00,,,0.00,VWS V13.01,2013-01-31 06:27:00,
2013-01-30 22:32:00,47.9,38.6,29.94,NW,324,0.0,2.0,70,0.00,,,0.00,VWS V13.01,2013-01-31 06:32:00,
2013-01-30 22:37:00,47.8,38.5,29.94,NW,323,0.0,2.0,70,0.00,,,0.00,VWS V13.01,2013-01-31 06:37:00,
2013-01-30 22:42:00,47.7,38.4,29.94,NW,323,0.0,2.0,70,0.00,,,0.00,VWS V13.01,2013-01-31 06:42:00,
2013-01-30 22:47:00,47.6,38.7,29.94,NW,324,2.0,4.0,71,0.00,,,0.00,VWS V13.01,2013-01-31 06:47:00,
2013-01-30 22:52:00,47.4,38.5,29.95,NW,323,0.0,4.0,71,0.00,,,0.00,VWS V13.01,2013-01-31 06:52:00,
2013-01-30 22:57:00,47.4,38.5,29.94,NW,324,0.0,4.0,71,0.00,,,0.00,VWS V13.01,2013-01-31 06:57:00,
2013-01-30 23:02:00,47.5,38.6,29.94,NW,323,1.0,4.0,71,0.00,,,0.00,VWS V13.01,2013-01-31 07:02:00,
2013-01-30 23:07:00,47.4,38.5,29.95,NW,324,0.0,1.0,71,0.00,,,0.00,VWS V13.01,2013-01-31 07:07:00,
2013-01-30 23:12:00,47.3,38.4,29.94,NW,323,0.0,1.0,71,0.00,,,0.00,VWS V13.01,2013-01-31 07:12:00,
2013-01-30 23:17:00,47.2,38.3,29.94,NW,324,0.0,2.0,71,0.00,,,0.00,VWS V13.01,2013-01-31 07:17:00,
2013-01-30 23:22:00,47.2,38.3,29.94,NW,323,0.0,2.0,71,0.00,,,0.00,VWS V13.01,2013-01-31 07:22:00,
2013-01-30 23:27:00,47.1,38.2,29.94,NW,323,0.0,2.0,71,0.00,,,0.00,VWS V13.01,2013-01-31 07:27:00,
2013-01-30 23:32:00,47.0,38.1,29.94,NW,323,0.0,2.0,71,0.00,,,0.00,VWS V13.01,2013-01-31 07:32:00,
2013-01-30 23:37:00,46.9,38.4,29.95,NW,323,0.0,2.0,72,0.00,,,0.00,VWS V13.01,2013-01-31 07:37:00,
2013-01-30 23:42:00,46.9,38.4,29.95,NW,324,0.0,2.0,72,0.00,,,0.00,VWS V13.01,2013-01-31 07:42:00,
2013-01-30 23:47:00,47.0,38.1,29.95,NW,324,0.0,2.0,71,0.00,,,0.00,VWS V13.01,2013-01-31 07:47:00,
2013-01-30 23:52:00,47.0,38.1,29.95,NW,324,0.0,2.0,71,0.00,,,0.00,VWS V13.01,2013-01-31 07:52:00,
2013-01-30 23:57:00,47.0,38.1,29.94,NW,324,0.0,2.0,71,0.00,,,0.00,VWS V13.01,2013-01-31 07:57:00,